#timestamp,LO_Frequency,Hit 
1497801615.9,286046991.9,N
1497801635.7,286046994.5,N
1497801655.5,286046994.0,N
1497801675.4,286046996.0,N
1497801695.2,286046995.9,N
1497801715.0,286046994.5,N
1497801715.9,286046994.5,N
1497801735.8,286046994.5,N
1497801755.6,286046991.7,N
1497801775.4,286046994.6,N
1497801795.2,286046992.0,N
1497801815.1,286046994.4,N
1497801816.0,286046994.4,N
1497801835.8,286046994.1,N
1497801855.6,286046994.5,N
1497801875.5,286046996.4,N
1497801895.3,286046993.9,N
1497801915.1,286046994.6,N
1497801935.9,286046994.5,N
1497801955.7,286046994.5,N
1497801975.5,286046992.2,N
1497801995.4,286046993.9,N
1497802015.2,286046994.1,N
1497802035.0,286046994.4,N
1497802035.9,286046994.4,N
1497802055.7,286046994.3,N
1497802075.6,286046994.1,N
1497802095.4,286046993.8,N
1497802115.2,286046993.5,N
1497802135.1,286046994.0,N
1497802136.0,286046994.0,N
1497802155.8,286046993.7,N
1497802175.6,286046994.0,N
1497802195.5,286046994.7,N
1497802215.3,286046991.9,N
1497802235.1,286046992.6,N
1497802255.9,286046994.6,N
1497802275.7,286046994.7,N
1497802295.5,286046992.0,N
1497802315.3,286046992.1,N
1497802335.2,286046991.9,N
1497802355.0,286046994.4,N
1497802355.9,286046994.4,N
1497802375.7,286046994.3,N
1497802395.6,286046994.2,N
1497802415.4,286046994.4,N
1497802435.2,286046992.0,N
1497802455.1,286046994.6,N
1497802456.0,286046994.6,N
1497802475.8,286046992.2,N
1497802495.6,286046994.6,N
1497802515.5,286046994.4,N
1497802535.3,286046991.7,N
1497802555.1,286046991.8,N
1497802575.9,286046992.1,N
1497802595.7,286046994.8,N
1497802615.5,286046996.4,N
1497802635.3,286046993.7,N
1497802655.2,286046994.6,N
1497802675.0,286046993.3,N
1497802675.9,286046993.3,N
1497802695.7,286046996.1,N
1497802715.6,286046995.9,N
1497802735.4,286046993.7,N
1497802755.2,286046993.9,N
1497802775.1,286046995.0,N
1497802776.0,286046995.0,N
1497802795.8,286046995.4,N
1497802815.6,286046995.8,N
1497802835.5,286046996.1,N
1497802855.3,286046994.7,N
1497802875.1,286046994.7,N
1497802895.9,286046995.2,N
1497802915.7,286046995.6,N
1497802935.5,286046995.2,N
1497802955.3,286046995.6,N
1497802975.2,286046995.0,N
1497802995.0,286046997.0,N
1497802995.9,286046997.0,N
1497803015.7,286046996.5,N
1497803035.6,286046997.5,N
1497803055.4,286046997.4,N
1497803075.2,286046996.5,N
1497803095.1,286046999.6,N
1497803096.0,286046999.6,N
1497803115.8,286046999.5,N
1497803135.6,286046997.4,N
1497803155.5,286046997.1,N
1497803175.3,286046999.3,N
1497803195.1,286046998.7,N
1497803215.9,286046998.6,N
1497803235.7,286046998.3,N
1497803255.5,286046999.1,N
1497803275.3,286046998.7,N
1497803295.2,286046998.7,N
1497803315.0,286047000.4,N
1497803315.9,286047000.4,N
1497803335.7,286047000.7,N
1497803355.6,286047000.1,N
1497803375.4,286047000.2,N
1497803395.2,286046999.9,N
1497803415.1,286047002.0,N
1497803416.0,286047002.0,N
1497803435.8,286047001.3,N
1497803455.6,286047004.2,N
1497803475.5,286047004.3,N
1497803495.3,286047001.4,N
1497803515.1,286047004.3,N
1497803535.9,286047003.9,N
1497803555.7,286047003.6,N
1497803575.5,286047003.5,N
1497803595.3,286047003.5,N
1497803615.2,286047005.9,N
1497803635.0,286047005.7,N
1497803635.9,286047005.7,N
1497803655.7,286047003.3,N
1497803675.6,286047003.4,N
1497803695.4,286047006.0,N
1497803715.2,286047005.8,N
1497803735.1,286047005.7,N
1497803736.0,286047005.7,N
1497803755.8,286047005.3,N
1497803775.6,286047005.4,N
1497803795.5,286047004.5,N
1497803815.3,286047006.2,N
1497803835.1,286047006.1,N
1497803855.8,286047006.1,N
1497803875.7,286047008.6,N
1497803895.5,286047008.4,N
1497803915.3,286047008.0,N
1497803935.2,286047008.7,N
1497803955.9,286047007.8,N
1497803975.7,286047008.6,N
1497803995.6,286047010.4,N
1497804015.4,286047007.7,N
1497804035.2,286047010.6,N
1497804055.1,286047012.4,N
1497804056.0,286047012.4,N
1497804075.8,286047009.6,N
1497804095.6,286047009.6,N
1497804115.5,286047010.6,N
1497804135.3,286047010.5,N
1497804155.1,286047009.6,N
1497804175.8,286047009.8,N
1497804195.7,286047009.9,N
1497804215.5,286047010.4,N
1497804235.3,286047010.3,N
1497804255.2,286047012.4,N
1497804275.9,286047009.7,N
1497804295.7,286047010.2,N
1497804315.6,286047012.2,N
1497804335.4,286047012.3,N
1497804355.2,286047012.4,N
1497804375.1,286047010.2,N
1497804376.0,286047010.2,N
1497804395.8,286047010.2,N
1497804415.6,286047009.9,N
1497804435.4,286047012.0,N
1497804455.3,286047012.4,N
1497804475.1,286047011.6,N
1497804495.8,286047009.9,N
1497804515.7,286047009.8,N
1497804535.5,286047011.7,N
1497804555.3,286047011.2,N
1497804575.2,286047012.7,N
1497804595.9,286047013.6,N
1497804615.7,286047011.3,N
1497804635.6,286047012.1,N
1497804655.4,286047012.1,N
1497804675.2,286047011.9,N
1497804695.0,286047009.4,N
1497804696.0,286047009.4,N
1497804715.8,286047009.8,N
1497804735.6,286047012.2,N
1497804755.4,286047011.1,N
1497804775.3,286047013.5,N
1497804795.1,286047011.7,N
1497804815.8,286047011.9,N
1497804835.7,286047009.6,N
1497804855.5,286047010.5,N
1497804875.3,286047009.8,N
1497804895.2,286047009.3,N
1497804915.9,286047012.0,N
1497804935.7,286047009.9,N
1497804955.5,286047008.6,N
1497804975.4,286047008.4,N
1497804995.2,286047012.0,N
1497805015.0,286047010.3,N
1497805015.9,286047010.3,N
1497805035.8,286047011.9,N
1497805055.6,286047012.2,N
1497805075.4,286047011.2,N
1497805095.3,286047011.8,N
1497805115.1,286047010.7,N
1497805116.0,286047010.7,N
1497805135.8,286047009.9,N
1497805155.7,286047009.9,N
1497805175.5,286047010.5,N
1497805195.3,286047009.7,N
